timestamp,surface_pressure_avg,surface_temp_avg,battery_voltage,lat,long
2020-01-10 00:09:01+00:00,367.18800000000016,1.5,12.57,47.84626,-54.09684
2020-01-10 00:19:01+00:00,365.4045,1.5,12.57,47.84626,-54.09684
2020-01-10 00:29:01+00:00,363.4729,1.5,12.57,47.84626,-54.09684
2020-01-10 00:39:01+00:00,355.1363,1.48,12.57,47.84626,-54.09684
2020-01-10 00:49:01+00:00,354.5146,1.45,12.57,47.84626,-54.09684
2020-01-10 00:59:01+00:00,350.4029,1.4,12.57,47.84626,-54.09684
2020-01-10 01:09:01+00:00,335.7580000000001,1.4,12.57,47.84626,-54.09684
2020-01-10 01:19:01+00:00,328.98800000000006,1.4,12.49,47.84626,-54.09684
2020-01-10 01:29:01+00:00,325.973,1.4,12.49,47.84626,-54.09684
2020-01-10 01:39:01+00:00,317.803,1.4,12.49,47.84626,-54.09684
2020-01-10 01:49:01+00:00,305.7697,1.4,12.49,47.84626,-54.09684
2020-01-10 01:59:01+00:00,301.723,1.4,12.49,47.84626,-54.09684
2020-01-10 02:09:01+00:00,297.4863,1.39,12.49,47.84626,-54.09684
2020-01-10 02:19:01+00:00,285.5447,1.39,12.49,47.84626,-54.09684
2020-01-10 02:29:01+00:00,276.4814,1.4,12.49,47.84626,-54.09684
2020-01-10 02:39:01+00:00,269.39799999999997,1.3,12.49,47.84626,-54.09684
2020-01-10 02:49:01+00:00,259.7764,1.31,12.49,47.84626,-54.09684
2020-01-10 02:59:01+00:00,252.9714,1.3,12.49,47.84626,-54.09684
2020-01-10 03:09:01+00:00,255.2648,1.3,12.49,47.84626,-54.09684
2020-01-10 03:19:01+00:00,255.0031,1.3,12.41,47.84626,-54.09684
2020-01-10 03:29:01+00:00,248.7181,1.3,12.41,47.84626,-54.09684
2020-01-10 03:39:01+00:00,248.0698,1.28,12.41,47.84626,-54.09684
2020-01-10 03:49:01+00:00,250.1781,1.2,12.41,47.84626,-54.09684
2020-01-10 03:59:01+00:00,249.5047,1.2,12.41,47.84626,-54.09684
2020-01-10 04:09:01+00:00,247.3581,1.16,12.41,47.84626,-54.09684
2020-01-10 04:19:01+00:00,250.5664,1.11,12.41,47.84626,-54.09684
2020-01-10 04:29:01+00:00,248.7181,1.1,12.41,47.84626,-54.09684
2020-01-10 04:39:01+00:00,240.6731,1.1,12.41,47.84626,-54.09684
2020-01-10 04:49:01+00:00,242.6165,1.08,12.41,47.84626,-54.09684
2020-01-10 04:59:01+00:00,249.8881,1.08,12.41,47.84626,-54.09684
2020-01-10 05:09:01+00:00,246.6397,1.06,12.41,47.84626,-54.09684
2020-01-10 05:19:01+00:00,242.3731,1.0,12.41,47.84626,-54.09684
2020-01-10 05:29:01+00:00,244.8798,1.0,12.41,47.84626,-54.09684
2020-01-10 05:39:01+00:00,241.5381,1.0,12.41,47.84626,-54.09684
2020-01-10 05:49:01+00:00,236.0247,1.0,12.41,47.84626,-54.09684
2020-01-10 05:59:01+00:00,238.2114,1.0,12.41,47.84626,-54.09684
2020-01-10 06:09:01+00:00,243.6448,1.0,12.41,47.84626,-54.09684
2020-01-10 06:19:01+00:00,242.6114,1.0,12.33,47.84626,-54.09684
2020-01-10 06:29:01+00:00,242.6781,0.98,12.33,47.84626,-54.09684
2020-01-10 06:39:01+00:00,252.9214,0.96,12.33,47.84626,-54.09684
2020-01-10 06:49:01+00:00,256.2148,1.0,12.33,47.84626,-54.09684
2020-01-10 06:59:01+00:00,254.4731,1.0,12.33,47.84626,-54.09684
2020-01-10 07:09:01+00:00,263.0114,0.97,12.33,47.84626,-54.09684
2020-01-10 07:19:01+00:00,276.3531,1.0,12.33,47.84626,-54.09684
2020-01-10 07:29:01+00:00,278.8846,0.9,12.33,47.84626,-54.09684
2020-01-10 07:39:01+00:00,276.363,0.9,12.33,47.84626,-54.09684
2020-01-10 07:49:01+00:00,287.8896,0.98,12.33,47.84626,-54.09684
2020-01-10 07:59:01+00:00,296.893,0.99,12.33,47.84626,-54.09684
2020-01-10 08:09:01+00:00,292.9047,0.9,12.33,47.84626,-54.09684
2020-01-10 08:19:01+00:00,289.9863,0.88,12.33,47.84626,-54.09684
2020-01-10 08:29:01+00:00,305.3347,0.9,12.33,47.84626,-54.09684
2020-01-10 08:39:01+00:00,315.513,0.9,12.33,47.84626,-54.09684
2020-01-10 08:49:01+00:00,315.3464,1.0,12.33,47.84626,-54.09684
2020-01-10 08:59:01+00:00,315.608,1.08,12.33,47.84626,-54.09684
2020-01-10 09:09:01+00:00,327.2747,1.1,12.33,47.84626,-54.09684
2020-01-10 09:19:01+00:00,334.1813,1.09,12.33,47.84626,-54.09684
2020-01-10 09:29:01+00:00,336.1613,1.1,12.33,47.84626,-54.09684
2020-01-10 09:39:01+00:00,344.6429,1.2,12.33,47.84626,-54.09684
2020-01-10 09:49:01+00:00,354.1229,1.3,12.33,47.84626,-54.09684
2020-01-10 09:59:01+00:00,361.7679,1.4,12.33,47.84626,-54.09684
2020-01-10 10:09:01+00:00,361.4979,1.3,12.33,47.84626,-54.09684
2020-01-10 10:19:01+00:00,369.0912,1.3,12.25,47.84626,-54.09684
2020-01-10 10:29:01+00:00,375.9329,1.4,12.25,47.84626,-54.09684
2020-01-10 10:39:01+00:00,376.7812,1.48,12.25,47.84626,-54.09684
2020-01-10 10:49:01+00:00,379.4846,1.4,12.25,47.84626,-54.09684
2020-01-10 10:59:01+00:00,383.2945,1.3,12.25,47.84626,-54.09684
2020-01-10 11:09:01+00:00,387.7729,1.3,12.25,47.84626,-54.09684
2020-01-10 11:19:01+00:00,389.7713,1.3,12.25,47.84626,-54.09684
2020-01-10 11:29:01+00:00,386.3079,1.4,12.25,47.84626,-54.09684
2020-01-10 11:39:01+00:00,387.4879,1.4,12.25,47.84626,-54.09684
2020-01-10 11:49:01+00:00,388.098,1.3,12.25,47.84626,-54.09684
2020-01-10 11:59:01+00:00,383.2362,1.3,12.25,47.84626,-54.09684
2020-01-10 12:09:01+00:00,375.7411,1.31,12.25,47.84626,-54.09684
2020-01-10 12:19:01+00:00,372.05300000000005,1.45,13.53,47.84626,-54.09684
2020-01-10 12:29:01+00:00,372.3279,1.3,13.53,47.84626,-54.09684
2020-01-10 12:39:01+00:00,365.3246,1.37,13.53,47.84626,-54.09684
2020-01-10 12:49:01+00:00,357.1446,1.43,13.53,47.84626,-54.09684
2020-01-10 12:59:01+00:00,356.5079,1.4,13.53,47.84626,-54.09684
2020-01-10 13:09:01+00:00,353.6846,1.4,13.53,47.84626,-54.09684
2020-01-10 13:19:01+00:00,344.8912,1.4,14.32,47.84626,-54.09684
2020-01-10 13:29:01+00:00,341.4380000000001,1.4,14.32,47.84626,-54.09684
2020-01-10 13:39:01+00:00,339.2146,1.4,14.32,47.84626,-54.09684
2020-01-10 13:49:01+00:00,327.9346,1.42,14.32,47.84626,-54.09684
2020-01-10 13:59:01+00:00,312.6297,1.47,14.32,47.84626,-54.09684
2020-01-10 14:09:01+00:00,305.103,1.46,14.32,47.84626,-54.09684
2020-01-10 14:19:01+00:00,301.5613,1.44,14.72,47.84626,-54.09684
2020-01-10 14:29:01+00:00,293.1147,1.41,14.72,47.84626,-54.09684
2020-01-10 14:39:01+00:00,281.743,1.42,14.72,47.84626,-54.09684
2020-01-10 14:49:01+00:00,273.468,1.4,14.72,47.84626,-54.09684
2020-01-10 14:59:01+00:00,263.7764,1.44,14.72,47.84626,-54.09684
2020-01-10 15:09:01+00:00,256.0231,1.48,14.72,47.84626,-54.09684
2020-01-10 15:19:01+00:00,251.7464,1.5,14.8,47.84626,-54.09684
2020-01-10 15:29:01+00:00,245.1631,1.5,14.8,47.84626,-54.09684
2020-01-10 15:39:01+00:00,230.8131,1.5,14.8,47.84626,-54.09684
2020-01-10 15:49:01+00:00,218.4548,1.5,14.8,47.84626,-54.09684
2020-01-10 15:59:01+00:00,216.2264,1.54,14.8,47.84626,-54.09684
2020-01-10 16:09:01+00:00,213.9315,1.6,14.8,47.84626,-54.09684
2020-01-10 16:19:01+00:00,204.3498,1.6,14.72,47.84626,-54.09684
2020-01-10 16:29:01+00:00,195.7948,1.6,14.72,47.84626,-54.09684
2020-01-10 16:39:01+00:00,193.2465,1.6,14.72,47.84626,-54.09684
2020-01-10 16:49:01+00:00,191.8031,1.62,14.72,47.84626,-54.09684
2020-01-10 16:59:01+00:00,190.6498,1.68,14.72,47.84626,-54.09684
2020-01-10 17:09:01+00:00,191.6765,1.7,14.72,47.84626,-54.09684
2020-01-10 17:19:01+00:00,194.8381,1.74,14.72,47.84626,-54.09684
2020-01-10 17:29:01+00:00,191.8048,1.72,14.72,47.84626,-54.09684
2020-01-10 17:39:01+00:00,187.3698,1.72,14.72,47.84626,-54.09684
2020-01-10 17:49:01+00:00,188.3665,1.75,14.72,47.84626,-54.09684
2020-01-10 17:59:01+00:00,189.5981,1.78,14.72,47.84626,-54.09684
2020-01-10 18:09:01+00:00,185.3115,1.79,14.72,47.84626,-54.09684
2020-01-10 18:19:01+00:00,183.4948,1.76,14.48,47.84626,-54.09684
2020-01-10 18:29:01+00:00,184.9465,1.77,14.48,47.84626,-54.09684
2020-01-10 18:39:01+00:00,184.5115,1.77,14.48,47.84626,-54.09684
2020-01-10 18:49:01+00:00,189.0731,1.78,14.48,47.84626,-54.09684
2020-01-10 18:59:01+00:00,197.0714,1.8,14.48,47.84626,-54.09684
2020-01-10 19:09:01+00:00,193.3848,1.79,14.48,47.84626,-54.09684
2020-01-10 19:19:01+00:00,195.4548,1.77,14.0,47.84626,-54.09684
2020-01-10 19:29:01+00:00,209.2198,1.77,14.0,47.84626,-54.09684
2020-01-10 19:39:01+00:00,215.2465,1.8,14.0,47.84626,-54.09684
2020-01-10 19:49:01+00:00,218.5898,1.8,14.0,47.84626,-54.09684
2020-01-10 19:59:01+00:00,225.2731,1.8,14.0,47.84626,-54.09684
2020-01-10 20:09:01+00:00,231.8714,1.83,14.0,47.84626,-54.09684
2020-01-10 20:19:01+00:00,235.4881,1.85,13.29,47.84626,-54.09684
2020-01-10 20:29:01+00:00,242.1614,1.84,13.29,47.84626,-54.09684
2020-01-10 20:39:01+00:00,250.2247,1.81,13.29,47.84626,-54.09684
2020-01-10 20:49:01+00:00,257.5914,1.81,13.29,47.84626,-54.09684
2020-01-10 20:59:01+00:00,265.0914,1.8,13.29,47.84626,-54.09684
2020-01-10 21:09:01+00:00,277.9414,1.8,13.29,47.84626,-54.09684
2020-01-10 21:19:01+00:00,286.7614,1.8,12.97,47.84626,-54.09684
2020-01-10 21:29:01+00:00,290.9114,1.76,12.97,47.84626,-54.09684
2020-01-10 21:39:01+00:00,295.1563,1.7,12.97,47.84626,-54.09684
2020-01-10 21:49:01+00:00,302.3496,1.7,12.97,47.84626,-54.09684
2020-01-10 21:59:01+00:00,310.6613,1.69,12.97,47.84626,-54.09684
2020-01-10 22:09:01+00:00,318.898,1.68,12.97,47.84626,-54.09684
2020-01-10 22:19:01+00:00,325.423,1.66,12.81,47.84626,-54.09684
2020-01-10 22:29:01+00:00,328.1797,1.65,12.81,47.84626,-54.09684
2020-01-10 22:39:01+00:00,330.9896,1.67,12.81,47.84626,-54.09684
2020-01-10 22:49:01+00:00,333.653,1.69,12.81,47.84626,-54.09684
2020-01-10 22:59:01+00:00,332.4647,1.69,12.81,47.84626,-54.09684
2020-01-10 23:09:01+00:00,338.7696,1.67,12.81,47.84626,-54.09684
2020-01-10 23:19:01+00:00,346.4563,1.6,12.81,47.84626,-54.09684
2020-01-10 23:29:01+00:00,347.728,1.6,12.81,47.84626,-54.09684
2020-01-10 23:39:01+00:00,342.8496,1.6,12.81,47.84626,-54.09684
2020-01-10 23:49:01+00:00,346.6897,1.6,12.81,47.84626,-54.09684
2020-01-10 23:59:01+00:00,346.6096,1.6,12.81,47.84626,-54.09684
